Location: Bęczków
(50.8761°N, 20.8028°E)
Time: 17:43:54
(UTC+02:00)

Envisat - Pass Details

Date: 29 March 2019
Orbit: 764 x 766 km, 98.2° (Epoch: 25 April)

Event Time Altitude Azimuth Distance (km) Brightness Sun altitude
Rises 18:38:55 0° 184° (S) 3,222 6.1 -6.3°
Reaches altitude 10° 18:41:19 10° 192° (SSW) 2,300 5.5 -6.6°
Maximum altitude 18:46:07 42° 263° (W) 1,087 4.4 -7.4°
Drops below altitude 10° 18:50:58 10° 334° (NNW) 2,316 6.1 -8.1°
Sets 18:53:24 0° 341° (NNW) 3,247 6.8 -8.5°
